Find Vinasat

NORAD ID: 32767 Int'l Des: 2008-018 Owner: VNPT Country: VN operational
HEOCIRCULARGSOGEO

Current View

Loading 3D Globe...

About Vinasat

Vinasat (NORAD 32767) is a satellite launched Apr 18, 2008 by VNPT of VN. It operates in HEO, CIRCULAR, GSO, GEO orbit with a mass of 2600.00 kg.

Upcoming Passes

Passes for default location (London). Set your location on the main map for personalized predictions.

Altitude History

Loading altitude history...

Two-Line Element Set

1 32767U 08018A 26194.51588824 -.00000332 00000-0 00000+0 0 9993
2 32767 0.0324 296.3012 0001405 196.6072 116.1407 1.00270032 66850
Epoch: Jul 13, 2026 • Age: 28 hours

Current Status

Altitude 35792.7 km
Apogee / Perigee N/A
Velocity 3.07 km/s
Sub-Earth Point -0.02°S, 131.94°E
Launch Date Apr 18, 2008
Age 18.2 years
Type other

Technical Details

Classification Payload
Mass 2600.00 kg
Dry Mass 1200.00 kg
Total Mass 2600.00 kg
Length 5.00 m
Diameter 2.20 m
Span 26.00 m
Shape Box + 2 Pan
Manufacturer LMCSS
Bus Type A2100
Phase Status In Orbit
Owner/State VNPT/VN

Most Searched